• In Deutschland
  • Länderverzeichnis
  • Für 7 Tage
  • Wassertemperatur
  • Satellitenkarten
  • Wetterkarte
  • Widgets
  • user-avatar
    Anmelden

    Stündliche Wetter Bad Wimpfen

    Heute, 19 Oktober, Donnerstag

    Zeit Temperatur Niederschläge Wind Luftdruck Luftfeuchtigkeit
    00:00 +13°C° 0 mm 1 m/S 741 mmHg 72%
    01:00 +12°C° 0 mm 1 m/S 741 mmHg 73%
    02:00 +12°C° 0 mm 1 m/S 741 mmHg 73%
    03:00 +12°C° 0 mm 1 m/S 741 mmHg 72%
    04:00 +12°C° 0 mm 1 m/S 741 mmHg 72%
    05:00 +12°C° 0 mm 1 m/S 741 mmHg 71%
    06:00 +12°C° 0 mm 1 m/S 741 mmHg 69%
    07:00 +12°C° 0 mm 1 m/S 741 mmHg 68%
    08:00 +14°C° 0 mm 1 m/S 741 mmHg 63%
    09:00 +16°C° 0 mm 1 m/S 741 mmHg 59%
    10:00 +19°C° 0 mm 1 m/S 741 mmHg 55%
    11:00 +20°C° 0 mm 1 m/S 741 mmHg 52%
    12:00 +22°C° 0 mm 1 m/S 741 mmHg 48%
    13:00 +23°C° 0 mm 1 m/S 741 mmHg 45%
    14:00 +23°C° 0 mm 1 m/S 741 mmHg 49%
    15:00 +22°C° 0 mm 1 m/S 740 mmHg 53%
    16:00 +22°C° 0 mm 1 m/S 740 mmHg 56%
    17:00 +20°C° 0 mm 1 m/S 740 mmHg 61%
    18:00 +19°C° 0 mm 1 m/S 740 mmHg 66%
    19:00 +16°C° 0 mm 1 m/S 740 mmHg 71%
    20:00 +15°C° 0 mm 1 m/S 740 mmHg 73%
    21:00 +15°C° 0 mm 1 m/S 740 mmHg 74%
    22:00 +14°C° 0 mm 2 m/S 741 mmHg 75%
    23:00 +14°C° 0 mm 1 m/S 741 mmHg 76%

    Morgen, 20 Oktober, Freitag

    Zeit Temperatur Niederschläge Wind Luftdruck Luftfeuchtigkeit
    00:00 +13°C° 0 mm 1 m/S 741 mmHg 77%
    01:00 +13°C° 0 mm 1 m/S 741 mmHg 78%
    02:00 +12°C° 0 mm 1 m/S 741 mmHg 78%
    03:00 +12°C° 0 mm 1 m/S 741 mmHg 79%
    04:00 +12°C° 0 mm 1 m/S 741 mmHg 79%
    05:00 +12°C° 0 mm 1 m/S 741 mmHg 80%
    06:00 +11°C° 0 mm 1 m/S 741 mmHg 80%
    07:00 +11°C° 0 mm 1 m/S 741 mmHg 80%
    08:00 +13°C° 0 mm 1 m/S 742 mmHg 73%
    09:00 +15°C° 0 mm 1 m/S 742 mmHg 67%
    10:00 +18°C° 0 mm 1 m/S 742 mmHg 61%
    11:00 +18°C° 0 mm 2 m/S 742 mmHg 59%
    12:00 +18°C° 0 mm 2 m/S 742 mmHg 58%
    13:00 +19°C° 0 mm 3 m/S 742 mmHg 56%
    14:00 +19°C° 0,1 mm 3 m/S 742 mmHg 61%
    15:00 +18°C° 0,1 mm 2 m/S 742 mmHg 66%
    16:00 +18°C° 0,1 mm 2 m/S 742 mmHg 71%
    17:00 +17°C° 0 mm 2 m/S 743 mmHg 75%
    18:00 +15°C° 0 mm 2 m/S 743 mmHg 80%
    19:00 +14°C° 0 mm 1 m/S 743 mmHg 84%
    20:00 +14°C° 0 mm 1 m/S 743 mmHg 86%
    21:00 +14°C° 0 mm 1 m/S 743 mmHg 87%
    22:00 +13°C° 0 mm 1 m/S 744 mmHg 88%
    23:00 +13°C° 0 mm 1 m/S 743 mmHg 89%

    übermorgen, 21 Oktober, Samstag

    Zeit Temperatur Niederschläge Wind Luftdruck Luftfeuchtigkeit
    00:00 +13°C° 0 mm 1 m/S 743 mmHg 89%
    01:00 +12°C° 0 mm 1 m/S 743 mmHg 90%
    02:00 +13°C° 0 mm 2 m/S 743 mmHg 89%
    03:00 +13°C° 0 mm 2 m/S 743 mmHg 88%
    04:00 +13°C° 0 mm 2 m/S 743 mmHg 87%
    05:00 +13°C° 0 mm 2 m/S 743 mmHg 85%
    06:00 +14°C° 0 mm 2 m/S 743 mmHg 83%
    07:00 +14°C° 0 mm 2 m/S 743 mmHg 82%
    08:00 +14°C° 0 mm 3 m/S 743 mmHg 77%
    09:00 +17°C° 0 mm 3 m/S 743 mmHg 72%
    10:00 +18°C° 0 mm 4 m/S 742 mmHg 68%
    11:00 +19°C° 0 mm 4 m/S 742 mmHg 65%
    12:00 +19°C° 0 mm 4 m/S 742 mmHg 62%
    13:00 +20°C° 0 mm 5 m/S 742 mmHg 59%
    14:00 +19°C° 0,4 mm 4 m/S 742 mmHg 67%
    15:00 +17°C° 0,4 mm 4 m/S 742 mmHg 76%
    16:00 +15°C° 0,4 mm 4 m/S 742 mmHg 84%
    17:00 +14°C° 0,5 mm 4 m/S 742 mmHg 85%
    18:00 +14°C° 0,5 mm 4 m/S 743 mmHg 87%
    19:00 +13°C° 0,5 mm 4 m/S 743 mmHg 89%
    20:00 +12°C° 0,3 mm 4 m/S 743 mmHg 88%
    21:00 +12°C° 0,3 mm 4 m/S 744 mmHg 88%
    22:00 +12°C° 0,3 mm 4 m/S 744 mmHg 88%
    23:00 +11°C° 0,1 mm 4 m/S 744 mmHg 87%

    22 Oktober, Sonntag

    Zeit Temperatur Niederschläge Wind Luftdruck Luftfeuchtigkeit
    00:00 +11°C° 0,1 mm 4 m/S 744 mmHg 87%
    01:00 +11°C° 0,1 mm 4 m/S 744 mmHg 87%
    02:00 +10°C° 0 mm 4 m/S 744 mmHg 87%
    03:00 +8°C° 0 mm 4 m/S 744 mmHg 88%
    04:00 +8°C° 0 mm 4 m/S 744 mmHg 88%
    05:00 +8°C° 0 mm 4 m/S 744 mmHg 88%
    06:00 +7°C° 0 mm 4 m/S 744 mmHg 89%
    07:00 +7°C° 0 mm 4 m/S 744 mmHg 89%
    08:00 +7°C° 0 mm 4 m/S 744 mmHg 85%
    09:00 +8°C° 0 mm 5 m/S 744 mmHg 82%
    10:00 +8°C° 0 mm 5 m/S 745 mmHg 79%
    11:00 +9°C° 0,1 mm 5 m/S 745 mmHg 75%
    12:00 +9°C° 0,1 mm 5 m/S 744 mmHg 72%
    13:00 +10°C° 0,1 mm 5 m/S 744 mmHg 68%
    14:00 +10°C° 0,2 mm 5 m/S 744 mmHg 69%
    15:00 +11°C° 0,2 mm 4 m/S 744 mmHg 69%
    16:00 +11°C° 0,2 mm 4 m/S 744 mmHg 69%
    17:00 +10°C° 0,1 mm 4 m/S 744 mmHg 74%
    18:00 +8°C° 0,1 mm 4 m/S 744 mmHg 78%
    19:00 +7°C° 0,1 mm 4 m/S 745 mmHg 82%
    20:00 +7°C° 0,3 mm 4 m/S 745 mmHg 83%
    21:00 +7°C° 0,3 mm 4 m/S 745 mmHg 85%
    22:00 +7°C° 0,3 mm 5 m/S 745 mmHg 86%
    23:00 +7°C° 0,2 mm 5 m/S 745 mmHg 87%

    23 Oktober, Montag

    Zeit Temperatur Niederschläge Wind Luftdruck Luftfeuchtigkeit
    00:00 +7°C° 0,2 mm 5 m/S 745 mmHg 87%
    01:00 +7°C° 0,2 mm 5 m/S 745 mmHg 88%
    02:00 +7°C° 0,4 mm 5 m/S 745 mmHg 89%
    03:00 +7°C° 0,4 mm 5 m/S 745 mmHg 89%
    04:00 +7°C° 0,4 mm 5 m/S 745 mmHg 90%
    05:00 +7°C° 0,4 mm 5 m/S 746 mmHg 90%
    06:00 +7°C° 0,4 mm 5 m/S 746 mmHg 90%
    07:00 +7°C° 0,4 mm 5 m/S 746 mmHg 90%
    08:00 +7°C° 0,2 mm 5 m/S 747 mmHg 89%
    09:00 +8°C° 0,2 mm 5 m/S 747 mmHg 87%
    10:00 +8°C° 0,2 mm 5 m/S 748 mmHg 85%
    11:00 +9°C° 0 mm 5 m/S 748 mmHg 83%
    12:00 +9°C° 0 mm 5 m/S 748 mmHg 82%
    13:00 +10°C° 0 mm 5 m/S 748 mmHg 80%
    14:00 +11°C° 0,1 mm 4 m/S 748 mmHg 82%
    15:00 +10°C° 0,1 mm 4 m/S 748 mmHg 83%
    16:00 +10°C° 0,1 mm 4 m/S 748 mmHg 85%
    17:00 +10°C° 0 mm 4 m/S 748 mmHg 86%
    18:00 +10°C° 0 mm 3 m/S 748 mmHg 87%
    19:00 +10°C° 0 mm 3 m/S 749 mmHg 89%
    20:00 +10°C° 0 mm 3 m/S 749 mmHg 89%
    21:00 +9°C° 0 mm 3 m/S 749 mmHg 89%
    22:00 +9°C° 0 mm 3 m/S 749 mmHg 89%
    23:00 +9°C° 0 mm 3 m/S 749 mmHg 90%

    24 Oktober, Dienstag

    Zeit Temperatur Niederschläge Wind Luftdruck Luftfeuchtigkeit
    00:00 +8°C° 0 mm 2 m/S 749 mmHg 91%
    01:00 +8°C° 0 mm 2 m/S 749 mmHg 91%
    02:00 +8°C° 0 mm 2 m/S 749 mmHg 91%
    03:00 +8°C° 0 mm 2 m/S 749 mmHg 91%
    04:00 +7°C° 0 mm 2 m/S 749 mmHg 90%
    05:00 +8°C° 0 mm 2 m/S 749 mmHg 90%
    06:00 +9°C° 0 mm 1 m/S 749 mmHg 89%
    07:00 +9°C° 0 mm 1 m/S 749 mmHg 88%
    08:00 +10°C° 0 mm 1 m/S 750 mmHg 84%
    09:00 +11°C° 0 mm 1 m/S 750 mmHg 79%
    10:00 +12°C° 0 mm 1 m/S 750 mmHg 74%
    11:00 +14°C° 0 mm 1 m/S 750 mmHg 69%
    12:00 +15°C° 0 mm 1 m/S 749 mmHg 64%
    13:00 +16°C° 0 mm 1 m/S 749 mmHg 59%
    14:00 +16°C° 0 mm 1 m/S 749 mmHg 61%
    15:00 +16°C° 0 mm 1 m/S 749 mmHg 63%
    16:00 +15°C° 0 mm 0 m/S 749 mmHg 65%
    17:00 +14°C° 0 mm 1 m/S 749 mmHg 69%
    18:00 +13°C° 0 mm 1 m/S 749 mmHg 73%
    19:00 +12°C° 0 mm 1 m/S 749 mmHg 77%
    20:00 +11°C° 0 mm 1 m/S 749 mmHg 78%
    21:00 +11°C° 0 mm 1 m/S 749 mmHg 79%
    22:00 +11°C° 0 mm 1 m/S 749 mmHg 81%
    23:00 +11°C° 0 mm 1 m/S 749 mmHg 81%
    Mehr zeigen